St. Joseph, KS

7:20 AM CDT on October 18, 2019 (GMT -0500)
Rosecrans Memorial

Weather History for KSTJ - September, 2019

Change the Weather History Date:

Wednesday, September 18, 2019

  Actual Average Record
Temperature  
Mean Temperature 80 °F 66 °F  
Max Temperature 92 °F 78 °F 98 °F (1925)
Min Temperature 67 °F 53 °F 36 °F (1981)
Degree Days  
Heating Degree Days 0 3  
Month to date heating degree days 0 23  
Since 1 July heating degree days 0 28  
Cooling Degree Days 15 3  
Month to date cooling degree days 211 91  
Year to date cooling degree days 1355 1168  
Growing Degree Days 30 (Base 50)    
Moisture  
Dew Point 69 °F    
Average Humidity 70    
Maximum Humidity 90    
Minimum Humidity 49    
Precipitation  
Precipitation 0.00 in 0.11 in 1.43 in (1966)
Month to date precipitation 1.47 2.28  
Year to date precipitation 30.74 28.58  
Sea Level Pressure  
Sea Level Pressure 29.93 in    
Wind  
Wind Speed 7 mph (South)    
Max Wind Speed 18 mph    
Max Gust Speed 25 mph    
Visibility 10 miles    
Events      
T = Trace of Precipitation, MM = Missing Value Source: NWS Daily Summary

Daily Weather History Graph

Daily Weather History Graph

Search for Another Location

Airport or City:

Astronomy

Sep. 18, 2019 Rise Set
Actual Time 7:03 AM CDT 7:23 PM CDT
Civil Twilight 6:36 AM CDT 7:50 PM CDT
Nautical Twilight 6:04 AM CDT 8:22 PM CDT
Astronomical Twilight 5:32 AM CDT 8:54 PM CDT
Moon 9:58 PM CDT 11:06 AM CDT
Length of Visible Light 13h 14m
Length of Day
12h 20m
Waning Gibbous, 82% of the Moon is Illuminated
Sep 18
Waning Gibbous
Sep 21
Last Quarter
Sep 28
New
Oct 5
First Quarter
Oct 13
Full

Hourly Weather History & Observations

Time (CDT) Temp. Heat Index Dew Point Humidity Pressure Visibility Wind Dir Wind Speed Gust Speed Precip Events Conditions
12:53 AM 73.9 °F - 66.9 °F 79% 29.93 in 10.0 mi South 3.5 mph - N/A   Clear
1:53 AM 72.0 °F - 66.9 °F 84% 29.94 in 10.0 mi South 4.6 mph - N/A   Clear
2:53 AM 72.0 °F - 66.9 °F 84% 29.94 in 10.0 mi SSW 4.6 mph - N/A   Clear
3:53 AM 72.0 °F - 66.0 °F 81% 29.93 in 10.0 mi SSE 4.6 mph - N/A   Clear
4:53 AM 69.1 °F - 66.0 °F 90% 29.93 in 9.0 mi Calm Calm - N/A   Clear
5:53 AM 70.0 °F - 66.0 °F 87% 29.93 in 9.0 mi SSE 5.8 mph - N/A   Clear
6:53 AM 71.1 °F - 66.0 °F 84% 29.93 in 10.0 mi SSE 4.6 mph - N/A   Clear
7:53 AM 73.0 °F - 66.9 °F 81% 29.93 in 9.0 mi South 5.8 mph - N/A   Clear
8:53 AM 78.1 °F - 68.0 °F 71% 29.94 in 10.0 mi South 5.8 mph - N/A   Clear
9:53 AM 81.0 °F 83.8 °F 68.0 °F 65% 29.94 in 10.0 mi South 6.9 mph - N/A   Clear
10:53 AM 86.0 °F 90.7 °F 70.0 °F 59% 29.95 in 10.0 mi SSW 5.8 mph - N/A   Clear
11:53 AM 88.0 °F 92.1 °F 69.1 °F 53% 29.96 in 10.0 mi South 10.4 mph - N/A   Clear
12:53 PM 90.0 °F 94.5 °F 69.1 °F 50% 29.95 in 10.0 mi SSW 13.8 mph 23.0 mph N/A   Clear
1:53 PM 91.0 °F 96.6 °F 70.0 °F 50% 29.94 in 10.0 mi South 9.2 mph 18.4 mph N/A   Partly Cloudy
2:53 PM 91.0 °F 95.6 °F 69.1 °F 48% 29.93 in 10.0 mi South 12.7 mph 23.0 mph N/A   Partly Cloudy
3:53 PM 91.9 °F 98.4 °F 71.1 °F 50% 29.92 in 10.0 mi South 10.4 mph - N/A   Scattered Clouds
4:53 PM 91.0 °F 95.6 °F 69.1 °F 48% 29.91 in 10.0 mi South 9.2 mph - N/A   Clear
5:53 PM 89.1 °F 93.7 °F 69.1 °F 52% 29.91 in 10.0 mi South 9.2 mph - N/A   Clear
6:53 PM 84.0 °F 88.4 °F 70.0 °F 63% 29.91 in 10.0 mi South 5.8 mph - N/A   Clear
7:53 PM 80.1 °F 83.2 °F 70.0 °F 71% 29.93 in 10.0 mi SSE 5.8 mph - N/A   Clear
8:53 PM 79.0 °F - 70.0 °F 74% 29.94 in 10.0 mi South 5.8 mph - N/A   Clear
9:53 PM 77.0 °F - 71.1 °F 82% 29.95 in 10.0 mi SSW 3.5 mph - N/A   Clear
10:53 PM 75.9 °F - 70.0 °F 82% 29.94 in 10.0 mi South 3.5 mph - N/A   Clear
11:53 PM 73.0 °F - 69.1 °F 87% 29.95 in 10.0 mi SSW 3.5 mph - N/A   Clear